Estación de Contra Coronel

Ultimos registro cada 15 minutos 60
Estación Fecha / Hora Temperatura Humedad Lluvia Velocidad Dirección Radiación Presion
60 Contra Coronel 31-08-2026 14:45 11,1 81,2 0 2 333 130,6 1017,5
59 Contra Coronel 31-08-2026 14:30 10,5 84,8 0,2 2 326 144,4 1017,6
58 Contra Coronel 31-08-2026 14:15 11,3 78,9 0 3,3 324 274,4 1017,6
57 Contra Coronel 31-08-2026 14:00 11,6 76,2 0 3,7 338 378,1 1017,5
56 Contra Coronel 31-08-2026 13:45 11,8 76,8 0 2,7 343 296,9 1017,8
55 Contra Coronel 31-08-2026 13:30 11 79,7 0 3 348 280,6 1017,9
54 Contra Coronel 31-08-2026 13:15 11,1 80 0 3 341 374,4 1018
53 Contra Coronel 31-08-2026 13:00 10,7 81,7 0 2,7 355 335,6 1018
52 Contra Coronel 31-08-2026 12:45 10,6 83,1 0 3 3 298,1 1018,1
51 Contra Coronel 31-08-2026 12:30 10,8 81,8 0 2,3 1 304,4 1018,2
50 Contra Coronel 31-08-2026 12:15 11,3 81,1 0 2 354 333,1 1018,3
49 Contra Coronel 31-08-2026 12:00 11,1 83 0 1,7 352 393,1 1018,3
48 Contra Coronel 31-08-2026 11:45 10,2 87,8 0 2 319 275,6 1018,3
47 Contra Coronel 31-08-2026 11:30 10,4 89,7 0 2 333 269,4 1018,4
46 Contra Coronel 31-08-2026 11:15 10,5 87,3 0 1,3 3 210,6 1018,2
45 Contra Coronel 31-08-2026 11:00 10,5 86,1 0 1,3 7 335,6 1018
44 Contra Coronel 31-08-2026 10:45 10,2 88,7 0 1,3 20 619,4 1018
43 Contra Coronel 31-08-2026 10:30 9,8 89,5 0 1 348 305,6 1018,2
42 Contra Coronel 31-08-2026 10:15 9,4 92,8 0 0,7 354 255,6 1017,9
41 Contra Coronel 31-08-2026 10:00 8,2 94 0 1 345 231,9 1017,7
40 Contra Coronel 31-08-2026 09:45 7,6 95,9 0 1 0 209,4 1017,6
39 Contra Coronel 31-08-2026 09:30 6,8 98,2 0 0,7 6 164,4 1017,3
38 Contra Coronel 31-08-2026 09:15 6,3 99,7 0 1 3 255,6 1017,3
37 Contra Coronel 31-08-2026 09:00 5,5 100 0 0,7 4 124,4 1017,3
36 Contra Coronel 31-08-2026 08:45 5,2 100 0 1 11 120,6 1017
35 Contra Coronel 31-08-2026 08:30 5 100 0 0,7 4 89,4 1016,7
34 Contra Coronel 31-08-2026 08:15 4,6 100 0 0,7 25 66,9 1016,4
33 Contra Coronel 31-08-2026 08:00 4,2 100 0 0 3 46,9 1016,2
32 Contra Coronel 31-08-2026 07:45 3,9 100 0 0 3 25,6 1016,2
31 Contra Coronel 31-08-2026 07:30 3,8 100 0 0 3 9,4 1016
30 Contra Coronel 31-08-2026 07:15 3,9 100 0 0 14 0,6 1015,8
29 Contra Coronel 31-08-2026 07:00 3,8 100 0 0,7 7 0,6 1015,6
28 Contra Coronel 31-08-2026 06:45 3,8 100 0 0 8 0,6 1015,6
27 Contra Coronel 31-08-2026 06:30 3,2 100 0 0 8 0,6 1015,5
26 Contra Coronel 31-08-2026 06:15 3,4 100 0 0 8 0,6 1015,2
25 Contra Coronel 31-08-2026 06:00 3,1 100 0 0 8 0,6 1015,2
24 Contra Coronel 31-08-2026 05:45 3,5 100 0 0 8 0,6 1015
23 Contra Coronel 31-08-2026 05:30 3,7 100 0 0 8 0,6 1014,7
22 Contra Coronel 31-08-2026 05:15 3,8 100 0 0,3 8 0,6 1014,5
21 Contra Coronel 31-08-2026 05:00 3,9 100 0 0,7 10 0,6 1014,5
20 Contra Coronel 31-08-2026 04:45 3,5 100 0 0,3 38 0,6 1014,5
19 Contra Coronel 31-08-2026 04:30 3,4 100 0 0,3 38 0,6 1014,4
18 Contra Coronel 31-08-2026 04:15 2,8 100 0 0 77 0,6 1014,5
17 Contra Coronel 31-08-2026 04:00 3,3 100 0 0 77 0,6 1014,3
16 Contra Coronel 31-08-2026 03:45 3,5 100 0 0 77 0,6 1014,1
15 Contra Coronel 31-08-2026 03:30 2,1 100 0 0 74 0,6 1013,9
14 Contra Coronel 31-08-2026 03:15 1,5 100 0 0 32 0,6 1013,8
13 Contra Coronel 31-08-2026 03:00 1,4 100 0 0 32 0,6 1013,8
12 Contra Coronel 31-08-2026 02:45 1,5 100 0 0 32 0,6 1013,8
11 Contra Coronel 31-08-2026 02:30 2 100 0 0 32 0,6 1013,7
10 Contra Coronel 31-08-2026 02:15 2,5 100 0 0 31 0,6 1013,4
9 Contra Coronel 31-08-2026 02:00 3,3 100 0 0 31 0,6 1013,4
8 Contra Coronel 31-08-2026 01:45 3,2 100 0 0 67 0,6 1013,2
7 Contra Coronel 31-08-2026 01:30 2,8 100 0 0 83 0,6 1013
6 Contra Coronel 31-08-2026 01:15 1,9 100 0 0 83 0,6 1013
5 Contra Coronel 31-08-2026 01:00 1,8 100 0 0 83 0,6 1013,2
4 Contra Coronel 31-08-2026 00:45 2,8 100 0 0 135 0,6 1013,2
3 Contra Coronel 31-08-2026 00:30 2,5 100 0 0 183 0,6 1013,1
2 Contra Coronel 31-08-2026 00:15 3,2 100 0 0 41 0,6 1013
1 Contra Coronel 31-08-2026 00:00 3,4 100 0 0 41 0,6 1012,8